[[{"header":{"parameterUnit":"m.s-1","parameterCategory":1,"la1":30.2991,"la2":30.254,"lo1":-89.0895,"lo2":-89.0444,"dy":0.0017,"dx":0.0017,"nx":28,"ny":28,"refTime":"2023-10-12T03:00:00:Z","depth":0,"parameterNumber":2,"parameterNumberName":"U-component_of_WINDS"},"data":[0,0,0,0,0,0,0,0,0,0,0,0,0,0,0,0,0,0,0,0,0,0,0,0,0,0,0,0,0,0,0,0,0,0,0,0,0,0,0,0,0,0,0,0,0,0,0,0,0,0,0,0,0,0,0,0,0,0,1.0706,1.0706,0,1.0761,1.0762,1.0762,1.0814,1.0815,1.0816,1.0816,1.0873,1.0874,1.0875,0,0,0,0,0,0,0,0,0,0,0,0,0,1.0645,1.0646,1.0706,1.0706,1.0707,1.0761,1.0762,1.0763,1.0814,1.0815,1.0816,1.0816,1.0873,1.0874,1.0875,0,0,0,0,0,0,0,0,0,0,0,0,0,1.0683,1.0646,1.0706,1.0739,1.0743,1.0761,1.0762,1.0763,1.0814,1.0815,1.0816,1.0817,1.0872,1.0874,1.0875,1.0864,0,0,1.0879,1.088,0,0,0,0,0,0,0,0,1.0681,1.0685,1.0734,1.0737,1.0741,1.0782,1.0761,1.0797,1.0814,1.0787,1.0816,1.0817,1.0842,1.0846,1.0854,1.0867,1.0869,1.0879,1.088,1.0881,1.0881,0,0,0,0,0,0,0,1.0678,1.0683,1.0728,1.0734,1.0739,1.0752,1.0758,1.0768,1.0808,1.0789,1.0793,1.0799,1.0844,1.0853,1.0856,1.087,1.0879,1.088,1.0881,1.0882,1.0876,1.0875,0,0,0,0,0,0,1.067,1.0681,1.0726,1.0729,1.0713,1.0752,1.0759,1.0768,1.0808,1.0815,1.0798,1.0801,1.085,1.0854,1.0858,1.0847,1.0881,1.0882,1.0883,1.0877,1.0875,1.0874,0,0,0,0,0,0,1.0669,1.0674,1.0724,1.0706,1.0713,1.0752,1.0761,1.0768,1.0777,1.0815,1.0822,1.08,1.0851,1.0856,1.0862,1.0849,1.0883,1.0884,1.0878,1.0876,1.0875,1.0825,0,0,0,0,0,0,1.0667,1.0673,1.0669,1.0706,1.0714,1.0726,1.076,1.0769,1.0779,1.0784,1.0818,1.0825,1.0852,1.086,1.0863,1.0852,1.0885,1.0879,1.0877,1.0875,1.0827,1.0822,1.0817,0,0,0,0,0,1.0664,1.0653,1.0669,1.0674,1.071,1.0726,1.0731,1.0762,1.0778,1.0774,1.0799,1.0824,1.0851,1.086,1.0864,1.0853,1.088,1.0878,1.0875,1.083,1.0823,1.0817,0,0,0,0,0,0,1.0614,1.0658,1.0676,1.0676,1.0697,1.0734,1.073,1.0753,1.077,1.0773,1.0812,1.0819,1.082,1.0838,1.0847,1.0844,1.0869,1.0867,1.0832,1.0826,1.0821,1.0815,1.0886,0,0,0,0,0,1.0603,1.0612,1.065,1.0646,1.0656,1.0691,1.0699,1.0722,1.0745,1.0753,1.0779,1.08,1.0813,1.0821,1.0835,1.0831,1.0839,1.0826,1.082,1.0816,1.0813,1.0811,1.0806,1.0867,1.0867,1.0867,0,0,1.0579,1.0605,1.0608,1.0637,1.0655,1.0663,1.0698,1.0706,1.0712,1.0755,1.0761,1.078,1.0807,1.0807,1.0809,1.0822,1.0798,1.0813,1.0809,1.0809,1.0808,1.0803,1.0797,1.0866,1.0866,1.0866,0,0,1.0541,1.0562,1.056,1.0578,1.0606,1.063,1.063,1.0664,1.0678,1.0686,1.0718,1.0726,1.0748,1.0766,1.0777,1.0746,1.0769,1.075,1.072,1.0718,1.0713,1.0709,1.0696,1.0691,1.0748,1.0748,1.0747,0,1.0509,1.0522,1.0557,1.0562,1.0573,1.0613,1.0611,1.0627,1.0658,1.0665,1.068,1.0708,1.0729,1.0733,1.0725,1.0734,1.0734,1.0745,1.0711,1.0707,1.0704,1.0692,1.0687,1.0745,1.0745,1.0745,1.0746,0,1.048,1.0489,1.0485,1.0513,1.0525,1.0526,1.0561,1.0568,1.059,1.0612,1.0619,1.0645,1.0665,1.0669,1.069,1.0676,1.0683,1.0704,1.0729,1.0694,1.0684,1.068,1.0741,1.0742,1.0743,1.0743,0,0,1.041,1.0458,1.0456,1.0469,1.0503,1.051,1.0514,1.0534,1.0538,1.0559,1.0562,1.058,1.06,1.0613,1.0637,1.0635,1.0607,1.0656,1.0657,1.0644,1.0591,1.0574,1.0568,1.0623,1.0623,1.0622,1.0589,0,1.0376,1.0384,1.0416,1.0415,1.0423,1.0461,1.0464,1.0485,1.0507,1.0517,1.0541,1.0552,1.0577,1.0585,1.0586,1.061,1.0596,1.0613,1.0626,1.0626,1.0616,1.0563,1.0545,1.0512,1.0585,1.0584,1.0584,0,1.0337,1.0354,1.0354,1.0387,1.0392,1.0394,1.0414,1.0424,1.0448,1.0464,1.0478,1.0505,1.0511,1.0536,1.0544,1.0555,1.0562,1.0575,1.0575,1.0575,1.0601,1.0561,1.0502,1.0497,1.0578,1.0579,1.0579,0,1.0283,1.0307,1.031,1.032,1.0359,1.036,1.0376,1.0402,1.0412,1.043,1.0436,1.0455,1.0464,1.0478,1.0509,1.0524,1.0513,1.0541,1.0525,1.0524,1.0519,1.0519,1.046,1.0527,1.0528,1.0528,1.0528,0,1.024,1.0238,1.0286,1.0287,1.0286,1.0323,1.032,1.0341,1.0363,1.0369,1.0404,1.0409,1.045,1.046,1.0485,1.0487,1.0491,1.0504,1.051,1.0499,1.0497,1.0503,1.0505,1.0526,1.0527,1.0527,1.0527,0,1.0179,1.0211,1.0216,1.0254,1.0263,1.026,1.0292,1.0294,1.0318,1.0325,1.0329,1.0366,1.0379,1.0412,1.0434,1.045,1.0445,1.0458,1.0436,1.044,1.0422,1.0422,1.0362,1.0356,1.0429,1.0429,1.0428,0,1.0149,1.0148,1.0185,1.0191,1.0206,1.0216,1.0226,1.0263,1.0272,1.03,1.0299,1.0315,1.0329,1.0348,1.0377,1.0394,1.0406,1.0384,1.0409,1.0398,1.0403,1.0402,1.0402,1.0378,1.0377,1.0376,1.0375,0,1.0091,1.0107,1.012,1.0138,1.0149,1.0165,1.0184,1.0187,1.0228,1.0236,1.025,1.0261,1.0283,1.0298,1.0319,1.0336,1.0362,1.0368,1.0365,1.0353,1.0339,1.0344,1.0419,1.0368,1.0369,1.0369,1.037,1.037,1.0043,1.0044,1.007,1.0083,1.0101,1.0117,1.0121,1.0145,1.0157,1.0178,1.0199,1.021,1.0235,1.0266,1.0282,1.0291,1.0304,1.03,1.0299,1.0297,1.0291,1.034,1.0295,1.0295,1.0296,1.0296,1.0296,0,0.9985,1.0004,1.0016,1.004,1.005,1.0075,1.0096,1.0103,1.0112,1.0134,1.0147,1.0162,1.0177,1.0207,1.0225,1.0226,1.0238,1.0229,1.0228,1.0231,1.0279,1.0279,1.0219,1.0219,1.0219,1.0219,1.0219,1.0219,0.9956,0.9958,0.9977,0.9988,1.0008,1.0018,1.0028,1.0043,1.006,1.0076,1.0088,1.0108,1.0133,1.0152,1.0167,1.0175,1.0179,1.0166,1.0178,1.0221,1.0228,1.0235,1.0235,1.0167,1.0167,1.0129,1.0129,1.0129]},{"header":{"parameterUnit":"m.s-1","parameterCategory":1,"la1":30.2991,"la2":30.254,"lo1":-89.0895,"lo2":-89.0444,"dy":0.0017,"dx":0.0017,"nx":28,"ny":28,"refTime":"2023-10-12T03:00:00:Z","depth":0,"parameterNumber":3,"parameterNumberName":"V-component_of_WINDS"},"data":[0,0,0,0,0,0,0,0,0,0,0,0,0,0,0,0,0,0,0,0,0,0,0,0,0,0,0,0,0,0,0,0,0,0,0,0,0,0,0,0,0,0,0,0,0,0,0,0,0,0,0,0,0,0,0,0,0,0,0.187,0.187,0,0.184,0.184,0.1839,0.185,0.1851,0.1852,0.1852,0.1819,0.1818,0.1816,0,0,0,0,0,0,0,0,0,0,0,0,0,0.1936,0.1935,0.187,0.187,0.187,0.184,0.1839,0.1839,0.185,0.1851,0.1852,0.1853,0.182,0.1818,0.1816,0,0,0,0,0,0,0,0,0,0,0,0,0,0.1907,0.1934,0.187,0.1872,0.1871,0.184,0.1839,0.1839,0.185,0.1851,0.1852,0.1853,0.1821,0.1818,0.1816,0.1781,0,0,0.1809,0.1808,0,0,0,0,0,0,0,0,0.1908,0.1904,0.1872,0.1871,0.1871,0.185,0.1851,0.182,0.185,0.1858,0.1852,0.1853,0.1829,0.1826,0.1818,0.178,0.1778,0.1809,0.1808,0.1807,0.1806,0,0,0,0,0,0,0,0.191,0.1905,0.1858,0.1871,0.1871,0.1873,0.187,0.1845,0.1838,0.1857,0.1858,0.1854,0.1829,0.182,0.1817,0.1778,0.1809,0.1807,0.1806,0.1805,0.1707,0.1706,0,0,0,0,0,0,0.1913,0.1907,0.1859,0.1857,0.1893,0.1871,0.1867,0.1856,0.1838,0.1837,0.1854,0.1855,0.1823,0.182,0.1816,0.1772,0.1807,0.1804,0.1803,0.1709,0.1707,0.1706,0,0,0,0,0,0,0.1914,0.1908,0.186,0.1882,0.1876,0.1869,0.1855,0.1855,0.1846,0.1835,0.1834,0.1846,0.1824,0.1819,0.1789,0.1771,0.1803,0.1801,0.171,0.1708,0.1706,0.1685,0,0,0,0,0,0,0.1916,0.1909,0.1896,0.1882,0.1875,0.1835,0.1854,0.1853,0.1842,0.1844,0.1828,0.1826,0.1824,0.1793,0.1787,0.1769,0.18,0.1712,0.1709,0.1707,0.1688,0.1683,0.1679,0,0,0,0,0,0.1918,0.1891,0.1895,0.1889,0.1859,0.1834,0.183,0.1829,0.1841,0.1827,0.182,0.1827,0.1775,0.179,0.1783,0.1764,0.1713,0.171,0.1707,0.1689,0.1684,0.1679,0,0,0,0,0,0,0.1903,0.189,0.1894,0.1862,0.1849,0.1836,0.1819,0.1823,0.1807,0.1809,0.1808,0.1804,0.1773,0.1766,0.1783,0.1728,0.1745,0.1741,0.1734,0.1728,0.1724,0.1726,0.1798,0,0,0,0,0,0.1896,0.1878,0.1867,0.1839,0.1833,0.1827,0.1816,0.1816,0.1803,0.1797,0.1788,0.1774,0.1754,0.1741,0.1723,0.1687,0.1683,0.1671,0.1666,0.1663,0.1659,0.1637,0.1631,0.1697,0.1697,0.1697,0,0,0.1882,0.1872,0.186,0.1836,0.1826,0.1805,0.1822,0.18,0.1785,0.1794,0.1764,0.1757,0.1742,0.1708,0.1693,0.1701,0.164,0.1659,0.1657,0.1654,0.1634,0.1627,0.1622,0.1695,0.1695,0.1696,0,0,0.1844,0.1836,0.1811,0.1801,0.1785,0.1781,0.1776,0.1762,0.1757,0.1728,0.1734,0.1715,0.1682,0.1669,0.1659,0.1615,0.162,0.1609,0.1586,0.1565,0.156,0.1555,0.1538,0.1531,0.1606,0.1606,0.1606,0,0.1827,0.1797,0.1798,0.1775,0.1763,0.1771,0.1745,0.1735,0.1714,0.1705,0.1715,0.1672,0.1662,0.1625,0.1614,0.1606,0.1598,0.161,0.1561,0.1556,0.1552,0.1535,0.1528,0.1604,0.1604,0.1605,0.1605,0,0.1776,0.1755,0.1737,0.1717,0.1703,0.1679,0.1675,0.1661,0.1662,0.1657,0.1626,0.1615,0.1593,0.1585,0.1586,0.1547,0.1552,0.1562,0.1578,0.1544,0.1528,0.1522,0.1602,0.1603,0.1603,0.1604,0,0,0.1728,0.1707,0.17,0.169,0.1674,0.1657,0.1632,0.1611,0.1598,0.1584,0.1562,0.1533,0.1541,0.1529,0.1529,0.1511,0.1474,0.1522,0.1522,0.1512,0.1428,0.1419,0.1412,0.1478,0.1477,0.1476,0.1428,0,0.1687,0.1644,0.1643,0.1603,0.1583,0.1589,0.1568,0.1554,0.1549,0.153,0.1524,0.1502,0.1516,0.1508,0.1491,0.1483,0.1457,0.1486,0.1456,0.1455,0.1457,0.1404,0.1395,0.135,0.1422,0.1421,0.1421,0,0.1633,0.1616,0.1574,0.1559,0.155,0.1531,0.151,0.1493,0.1477,0.1475,0.1461,0.1463,0.1437,0.1456,0.1418,0.1438,0.1426,0.142,0.1418,0.1413,0.1434,0.1395,0.1337,0.1329,0.1411,0.1412,0.1413,0,0.1599,0.1566,0.1536,0.1527,0.151,0.1495,0.1487,0.1473,0.146,0.1442,0.1433,0.1412,0.14,0.1384,0.138,0.1395,0.1342,0.1361,0.1337,0.1337,0.1324,0.1324,0.126,0.132,0.132,0.132,0.132,0,0.1552,0.1525,0.152,0.1501,0.1471,0.147,0.144,0.1433,0.142,0.1399,0.1405,0.1385,0.1382,0.1361,0.1358,0.1326,0.1321,0.1317,0.1316,0.1315,0.1315,0.1305,0.1307,0.1318,0.1318,0.1319,0.1319,0,0.1508,0.1504,0.1471,0.1456,0.1452,0.143,0.1417,0.1398,0.1394,0.1367,0.136,0.1352,0.1328,0.1323,0.1294,0.1292,0.1253,0.1257,0.1258,0.1257,0.1233,0.1234,0.1158,0.1146,0.1216,0.1215,0.1215,0,0.1477,0.1457,0.144,0.1426,0.1417,0.1395,0.1381,0.138,0.1365,0.1345,0.1329,0.1305,0.1285,0.1246,0.1236,0.1214,0.1215,0.119,0.1212,0.1211,0.1212,0.1212,0.1209,0.1185,0.1185,0.1184,0.1183,0,0.1422,0.1421,0.1401,0.138,0.1363,0.1347,0.1331,0.1319,0.1315,0.1298,0.1273,0.1258,0.1228,0.1204,0.1181,0.1172,0.1176,0.1177,0.117,0.1167,0.1168,0.1165,0.1244,0.1178,0.1179,0.1179,0.1179,0.118,0.1382,0.1363,0.1348,0.1325,0.1313,0.1298,0.1279,0.1271,0.125,0.1226,0.1226,0.1198,0.1182,0.1152,0.1141,0.1118,0.1126,0.1116,0.1113,0.111,0.1107,0.1174,0.1115,0.1115,0.1115,0.1115,0.1115,0,0.1325,0.1315,0.1294,0.1272,0.1253,0.126,0.1243,0.1226,0.1202,0.1187,0.1167,0.1137,0.1113,0.1102,0.1078,0.1062,0.1063,0.1055,0.1055,0.1052,0.1102,0.111,0.1055,0.1055,0.1055,0.1055,0.1055,0.1055,0.1293,0.1261,0.1257,0.1218,0.1209,0.1181,0.1171,0.1156,0.1143,0.111,0.109,0.1083,0.1069,0.1044,0.1021,0.1018,0.1008,0.0999,0.0997,0.1043,0.1049,0.1055,0.1062,0.0997,0.0997,0.0948,0.0948,0.0948]}]]